Year,Month,Day,Hour,Minute,Value (Times are PST for temperature in C)
2016,07,17,00,00,15.30
2016,07,17,00,01,15.30
2016,07,17,00,02,15.30
2016,07,17,00,03,15.20
2016,07,17,00,04,15.20
2016,07,17,00,05,15.20
2016,07,17,00,06,15.20
2016,07,17,00,07,15.20
2016,07,17,00,08,15.20
2016,07,17,00,09,15.20
2016,07,17,00,10,15.20
2016,07,17,00,11,15.10
2016,07,17,00,12,15.10
2016,07,17,00,13,15.10
2016,07,17,00,14,15.10
2016,07,17,00,15,15.10
2016,07,17,00,16,15.10
2016,07,17,00,17,15.10
2016,07,17,00,18,15.10
2016,07,17,00,19,15.10
2016,07,17,00,20,15.10
2016,07,17,00,21,15.10
2016,07,17,00,22,15.10
2016,07,17,00,23,15.00
2016,07,17,00,24,15.00
2016,07,17,00,25,15.00
2016,07,17,00,26,15.00
2016,07,17,00,27,15.00
2016,07,17,00,28,15.00
2016,07,17,00,29,15.00
2016,07,17,00,30,15.00
2016,07,17,00,31,15.00
2016,07,17,00,32,15.00
2016,07,17,00,33,15.00
2016,07,17,00,34,14.90
2016,07,17,00,35,14.90
2016,07,17,00,36,14.90
2016,07,17,00,37,14.90
2016,07,17,00,38,14.90
2016,07,17,00,39,14.90
2016,07,17,00,40,14.90
2016,07,17,00,41,14.90
2016,07,17,00,42,14.90
2016,07,17,00,43,14.90
2016,07,17,00,44,14.90
2016,07,17,00,45,14.90
2016,07,17,00,46,14.90
2016,07,17,00,47,14.90
2016,07,17,00,48,14.90
2016,07,17,00,49,14.90
2016,07,17,00,50,14.90
2016,07,17,00,51,14.90
2016,07,17,00,52,14.90
2016,07,17,00,53,14.90
2016,07,17,00,54,14.90
2016,07,17,00,55,14.90
2016,07,17,00,56,14.90
2016,07,17,00,57,14.90
2016,07,17,00,58,14.90
2016,07,17,00,59,14.90
2016,07,17,01,00,14.80
2016,07,17,01,01,14.80
2016,07,17,01,02,14.80
2016,07,17,01,03,14.80
2016,07,17,01,04,14.80
2016,07,17,01,05,14.80
2016,07,17,01,06,14.80
2016,07,17,01,07,14.80
2016,07,17,01,08,14.80
2016,07,17,01,09,14.70
2016,07,17,01,10,14.70
2016,07,17,01,11,14.70
2016,07,17,01,12,14.70
2016,07,17,01,13,14.70
2016,07,17,01,14,14.70
2016,07,17,01,15,14.80
2016,07,17,01,16,14.80
2016,07,17,01,17,14.80
2016,07,17,01,18,14.80
2016,07,17,01,19,14.80
2016,07,17,01,20,14.80
2016,07,17,01,21,14.80
2016,07,17,01,22,14.80
2016,07,17,01,23,14.80
2016,07,17,01,24,14.80
2016,07,17,01,25,14.80
2016,07,17,01,26,14.80
2016,07,17,01,27,14.80
2016,07,17,01,28,14.80
2016,07,17,01,29,14.70
2016,07,17,01,30,14.70
2016,07,17,01,31,14.70
2016,07,17,01,32,14.70
2016,07,17,01,33,14.70
2016,07,17,01,34,14.70
2016,07,17,01,35,14.70
2016,07,17,01,36,14.70
2016,07,17,01,37,14.70
2016,07,17,01,38,14.70
2016,07,17,01,39,14.70
2016,07,17,01,40,14.70
2016,07,17,01,41,14.70
2016,07,17,01,42,14.70
2016,07,17,01,43,14.70
2016,07,17,01,44,14.70
2016,07,17,01,45,14.70
2016,07,17,01,46,14.70
2016,07,17,01,47,14.70
2016,07,17,01,48,14.70
2016,07,17,01,49,14.70
2016,07,17,01,50,14.70
2016,07,17,01,51,14.70
2016,07,17,01,52,14.70
2016,07,17,01,53,14.70
2016,07,17,01,54,14.70
2016,07,17,01,55,14.60
2016,07,17,01,56,14.60
2016,07,17,01,57,14.70
2016,07,17,01,58,14.60
2016,07,17,01,59,14.70
2016,07,17,02,00,14.60
2016,07,17,02,01,14.60
2016,07,17,02,02,14.60
2016,07,17,02,03,14.70
2016,07,17,02,04,14.70
2016,07,17,02,05,14.70
2016,07,17,02,06,14.70
2016,07,17,02,07,14.70
2016,07,17,02,08,14.70
2016,07,17,02,09,14.70
2016,07,17,02,10,14.70
2016,07,17,02,11,14.70
2016,07,17,02,12,14.70
2016,07,17,02,13,14.70
2016,07,17,02,14,14.70
2016,07,17,02,15,14.70
2016,07,17,02,16,14.70
2016,07,17,02,17,14.70
2016,07,17,02,18,14.70
2016,07,17,02,19,14.70
2016,07,17,02,20,14.70
2016,07,17,02,21,14.70
2016,07,17,02,22,14.70
2016,07,17,02,23,14.70
2016,07,17,02,24,14.70
2016,07,17,02,25,14.60
2016,07,17,02,26,14.60
2016,07,17,02,27,14.60
2016,07,17,02,28,14.60
2016,07,17,02,29,14.60
2016,07,17,02,30,14.60
2016,07,17,02,31,14.60
2016,07,17,02,32,14.60
2016,07,17,02,33,14.60
2016,07,17,02,34,14.60
2016,07,17,02,35,14.60
2016,07,17,02,36,14.60
2016,07,17,02,37,14.70
2016,07,17,02,38,14.60
2016,07,17,02,39,14.70
2016,07,17,02,40,14.70
2016,07,17,02,41,14.70
2016,07,17,02,42,14.70
2016,07,17,02,43,14.70
2016,07,17,02,44,14.70
2016,07,17,02,45,14.70
2016,07,17,02,46,14.70
2016,07,17,02,47,14.70
2016,07,17,02,48,14.70
2016,07,17,02,49,14.70
2016,07,17,02,50,14.70
2016,07,17,02,51,14.70
2016,07,17,02,52,14.70
2016,07,17,02,53,14.70
2016,07,17,02,54,14.70
2016,07,17,02,55,14.70
2016,07,17,02,56,14.70
2016,07,17,02,57,14.70
2016,07,17,02,58,14.70
2016,07,17,02,59,14.70
2016,07,17,03,00,14.60
2016,07,17,03,01,14.60
2016,07,17,03,02,14.60
2016,07,17,03,06,14.60
2016,07,17,03,07,14.60
2016,07,17,03,08,14.60
2016,07,17,03,09,14.60
2016,07,17,03,10,14.60
2016,07,17,03,11,14.60
2016,07,17,03,12,14.60
2016,07,17,03,13,14.60
2016,07,17,03,14,14.60
2016,07,17,03,15,14.60
2016,07,17,03,16,14.70
2016,07,17,03,17,14.70
2016,07,17,03,18,14.70
2016,07,17,03,19,14.70
2016,07,17,03,20,14.70
2016,07,17,03,21,14.70
2016,07,17,03,22,14.70
2016,07,17,03,23,14.70
2016,07,17,03,24,14.70
2016,07,17,03,25,14.70
2016,07,17,03,26,14.70
2016,07,17,03,27,14.70
2016,07,17,03,28,14.70
2016,07,17,03,29,14.70
2016,07,17,03,30,14.70
2016,07,17,03,31,14.70
2016,07,17,03,32,14.70
2016,07,17,03,33,14.70
2016,07,17,03,34,14.70
2016,07,17,03,35,14.70
2016,07,17,03,36,14.70
2016,07,17,03,37,14.70
2016,07,17,03,38,14.70
2016,07,17,03,39,14.80
2016,07,17,03,40,14.80
2016,07,17,03,41,14.80
2016,07,17,03,42,14.80
2016,07,17,03,43,14.80
2016,07,17,03,44,14.80
2016,07,17,03,45,14.80
2016,07,17,03,46,14.80
2016,07,17,03,47,14.80
2016,07,17,03,48,14.80
2016,07,17,03,49,14.80
2016,07,17,03,50,14.80
2016,07,17,03,51,14.80
2016,07,17,03,52,14.80
2016,07,17,03,53,14.80
2016,07,17,03,54,14.80
2016,07,17,03,55,14.80
2016,07,17,03,56,14.80
2016,07,17,03,57,14.80
2016,07,17,03,58,14.80
2016,07,17,03,59,14.80
2016,07,17,04,00,14.80
2016,07,17,04,01,14.80
2016,07,17,04,02,14.80
2016,07,17,04,03,14.80
2016,07,17,04,04,14.80
2016,07,17,04,05,14.80
2016,07,17,04,06,14.80
2016,07,17,04,07,14.80
2016,07,17,04,08,14.80
2016,07,17,04,09,14.80
2016,07,17,04,10,14.80
2016,07,17,04,11,14.80
2016,07,17,04,12,14.80
2016,07,17,04,13,14.80
2016,07,17,04,14,14.80
2016,07,17,04,15,14.80
2016,07,17,04,16,14.80
2016,07,17,04,17,14.80
2016,07,17,04,18,14.80
2016,07,17,04,19,14.80
2016,07,17,04,20,14.80
2016,07,17,04,21,14.80
2016,07,17,04,22,14.80
2016,07,17,04,23,14.80
2016,07,17,04,24,14.80
2016,07,17,04,25,14.80
2016,07,17,04,26,14.80
2016,07,17,04,27,14.80
2016,07,17,04,28,14.80
2016,07,17,04,29,14.80
2016,07,17,04,30,14.80
2016,07,17,04,31,14.80
2016,07,17,04,32,14.70
2016,07,17,04,33,14.70
2016,07,17,04,34,14.70
2016,07,17,04,35,14.70
2016,07,17,04,36,14.70
2016,07,17,04,37,14.70
2016,07,17,04,38,14.70
2016,07,17,04,39,14.70
2016,07,17,04,40,14.70
2016,07,17,04,41,14.70
2016,07,17,04,42,14.70
2016,07,17,04,43,14.70
2016,07,17,04,44,14.70
2016,07,17,04,45,14.70
2016,07,17,04,46,14.70
2016,07,17,04,47,14.70
2016,07,17,04,48,14.70
2016,07,17,04,49,14.70
2016,07,17,04,50,14.70
2016,07,17,04,51,14.70
2016,07,17,04,52,14.70
2016,07,17,04,53,14.70
2016,07,17,04,54,14.70
2016,07,17,04,55,14.70
2016,07,17,04,56,14.70
2016,07,17,04,57,14.70
2016,07,17,04,58,14.70
2016,07,17,04,59,14.70
2016,07,17,05,00,14.70
2016,07,17,05,01,14.70
2016,07,17,05,02,14.70
2016,07,17,05,03,14.70
2016,07,17,05,04,14.70
2016,07,17,05,05,14.70
2016,07,17,05,06,14.70
2016,07,17,05,07,14.70
2016,07,17,05,08,14.70
2016,07,17,05,09,14.70
2016,07,17,05,10,14.80
2016,07,17,05,11,14.80
2016,07,17,05,12,14.80
2016,07,17,05,13,14.80
2016,07,17,05,14,14.80
2016,07,17,05,15,14.80
2016,07,17,05,16,14.80
2016,07,17,05,17,14.80
2016,07,17,05,18,14.80
2016,07,17,05,19,14.80
2016,07,17,05,20,14.80
2016,07,17,05,21,14.80
2016,07,17,05,22,14.80
2016,07,17,05,23,14.80
2016,07,17,05,24,14.80
2016,07,17,05,25,14.80
2016,07,17,05,26,14.80
2016,07,17,05,27,14.80
2016,07,17,05,28,14.80
2016,07,17,05,29,14.80
2016,07,17,05,30,14.80
2016,07,17,05,31,14.80
2016,07,17,05,32,14.80
2016,07,17,05,33,14.80
2016,07,17,05,34,14.80
2016,07,17,05,35,14.80
2016,07,17,05,36,14.80
2016,07,17,05,37,14.80
2016,07,17,05,38,14.80
2016,07,17,05,39,14.80
2016,07,17,05,40,14.80
2016,07,17,05,41,14.80
2016,07,17,05,42,14.80
2016,07,17,05,43,14.80
2016,07,17,05,44,14.80
2016,07,17,05,45,14.80
2016,07,17,05,46,14.90
2016,07,17,05,47,14.90
2016,07,17,05,48,14.90
2016,07,17,05,49,14.90
2016,07,17,05,50,14.90
2016,07,17,05,51,14.90
2016,07,17,05,52,14.90
2016,07,17,05,53,14.90
2016,07,17,05,54,14.90
2016,07,17,05,55,14.90
2016,07,17,05,56,14.90
2016,07,17,05,57,14.90
2016,07,17,05,58,14.90
2016,07,17,05,59,14.90
2016,07,17,06,00,14.90
2016,07,17,06,01,14.90
2016,07,17,06,02,14.90
2016,07,17,06,03,14.90
2016,07,17,06,04,14.90
2016,07,17,06,05,14.90
2016,07,17,06,06,14.90
2016,07,17,06,07,14.90
2016,07,17,06,08,14.90
2016,07,17,06,09,14.90
2016,07,17,06,10,14.90
2016,07,17,06,11,14.90
2016,07,17,06,12,14.90
2016,07,17,06,13,14.90
2016,07,17,06,14,14.90
2016,07,17,06,15,14.90
2016,07,17,06,16,14.90
2016,07,17,06,17,14.90
2016,07,17,06,18,14.90
2016,07,17,06,19,14.90
2016,07,17,06,20,14.90
2016,07,17,06,21,14.90
2016,07,17,06,22,14.90
2016,07,17,06,23,14.90
2016,07,17,06,24,14.90
2016,07,17,06,25,14.90
2016,07,17,06,26,14.90
2016,07,17,06,27,14.90
2016,07,17,06,28,14.90
2016,07,17,06,29,14.90
2016,07,17,06,30,14.90
2016,07,17,06,31,14.90
2016,07,17,06,32,14.90
2016,07,17,06,33,14.90
2016,07,17,06,34,14.90
2016,07,17,06,35,15.00
2016,07,17,06,36,15.00
2016,07,17,06,37,15.00
2016,07,17,06,38,15.00
2016,07,17,06,39,15.00
2016,07,17,06,40,15.00
2016,07,17,06,41,15.00
2016,07,17,06,42,15.10
2016,07,17,06,43,15.10
2016,07,17,06,44,15.10
2016,07,17,06,45,15.10
2016,07,17,06,46,15.10
2016,07,17,06,47,15.10
2016,07,17,06,48,15.10
2016,07,17,06,49,15.10
2016,07,17,06,50,15.10
2016,07,17,06,51,15.10
2016,07,17,06,52,15.10
2016,07,17,06,53,15.10
2016,07,17,06,54,15.20
2016,07,17,06,55,15.20
2016,07,17,06,56,15.20
2016,07,17,06,57,15.20
2016,07,17,06,58,15.20
2016,07,17,06,59,15.20
2016,07,17,07,00,15.20
2016,07,17,07,01,15.20
2016,07,17,07,02,15.20
2016,07,17,07,03,15.20
2016,07,17,07,04,15.20
2016,07,17,07,05,15.20
2016,07,17,07,06,15.30
2016,07,17,07,07,15.30
2016,07,17,07,08,15.30
2016,07,17,07,09,15.30
2016,07,17,07,10,15.30
2016,07,17,07,11,15.30
2016,07,17,07,12,15.30
2016,07,17,07,13,15.30
2016,07,17,07,14,15.30
2016,07,17,07,15,15.30
2016,07,17,07,16,15.30
2016,07,17,07,17,15.30
2016,07,17,07,18,15.30
2016,07,17,07,19,15.40
2016,07,17,07,20,15.40
2016,07,17,07,21,15.40
2016,07,17,07,22,15.40
2016,07,17,07,23,15.40
2016,07,17,07,24,15.40
2016,07,17,07,25,15.40
2016,07,17,07,26,15.40
2016,07,17,07,27,15.40
2016,07,17,07,28,15.40
2016,07,17,07,29,15.40
2016,07,17,07,30,15.40
2016,07,17,07,31,15.40
2016,07,17,07,32,15.40
2016,07,17,07,33,15.40
2016,07,17,07,34,15.40
2016,07,17,07,35,15.50
2016,07,17,07,36,15.50
2016,07,17,07,37,15.50
2016,07,17,07,38,15.50
2016,07,17,07,39,15.50
2016,07,17,07,40,15.60
2016,07,17,07,41,15.60
2016,07,17,07,42,15.60
2016,07,17,07,43,15.60
2016,07,17,07,44,15.60
2016,07,17,07,45,15.60
2016,07,17,07,46,15.60
2016,07,17,07,47,15.60
2016,07,17,07,48,15.60
2016,07,17,07,49,15.70
2016,07,17,07,50,15.60
2016,07,17,07,51,15.70
2016,07,17,07,52,15.70
2016,07,17,07,53,15.70
2016,07,17,07,54,15.70
2016,07,17,07,55,15.70
2016,07,17,07,56,15.70
2016,07,17,07,57,15.70
2016,07,17,07,58,15.70
2016,07,17,07,59,15.70
2016,07,17,08,00,15.70
2016,07,17,08,01,15.70
2016,07,17,08,02,15.80
2016,07,17,08,03,15.80
2016,07,17,08,04,15.80
2016,07,17,08,05,15.80
2016,07,17,08,06,15.80
2016,07,17,08,07,15.90
2016,07,17,08,08,15.90
2016,07,17,08,09,15.90
2016,07,17,08,10,16.00
2016,07,17,08,11,16.00
2016,07,17,08,12,16.00
2016,07,17,08,13,16.10
2016,07,17,08,14,16.10
2016,07,17,08,15,16.10
2016,07,17,08,16,16.00
2016,07,17,08,17,16.10
2016,07,17,08,18,16.00
2016,07,17,08,19,16.10
2016,07,17,08,20,16.10
2016,07,17,08,21,16.10
2016,07,17,08,22,16.10
2016,07,17,08,23,16.10
2016,07,17,08,24,16.10
2016,07,17,08,25,16.20
2016,07,17,08,26,16.20
2016,07,17,08,27,16.20
2016,07,17,08,28,16.30
2016,07,17,08,29,16.30
2016,07,17,08,30,16.30
2016,07,17,08,31,16.30
2016,07,17,08,32,16.40
2016,07,17,08,33,16.40
2016,07,17,08,34,16.40
2016,07,17,08,35,16.40
2016,07,17,08,36,16.40
2016,07,17,08,37,16.40
2016,07,17,08,38,16.40
2016,07,17,08,39,16.50
2016,07,17,08,40,16.50
2016,07,17,08,41,16.50
2016,07,17,08,42,16.50
2016,07,17,08,43,16.50
2016,07,17,08,44,16.60
2016,07,17,08,45,16.60
2016,07,17,08,46,16.60
2016,07,17,08,47,16.60
2016,07,17,08,48,16.60
2016,07,17,08,49,16.70
2016,07,17,08,50,16.70
2016,07,17,08,51,16.80
2016,07,17,08,52,16.80
2016,07,17,08,53,16.80
2016,07,17,08,54,16.80
2016,07,17,08,55,16.90
2016,07,17,08,56,16.90
2016,07,17,08,57,17.00
2016,07,17,08,58,17.00
2016,07,17,08,59,17.10
2016,07,17,09,00,17.10
2016,07,17,09,01,17.20
2016,07,17,09,02,17.20
2016,07,17,09,03,17.20
2016,07,17,09,04,17.30
2016,07,17,09,05,17.30
2016,07,17,09,06,17.30
2016,07,17,09,07,17.30
2016,07,17,09,08,17.30
2016,07,17,09,09,17.30
2016,07,17,09,10,17.30
2016,07,17,09,11,17.20
2016,07,17,09,12,17.20
2016,07,17,09,13,17.20
2016,07,17,09,14,17.20
2016,07,17,09,15,17.20
2016,07,17,09,16,17.20
2016,07,17,09,17,17.20
2016,07,17,09,18,17.20
2016,07,17,09,19,17.20
2016,07,17,09,20,17.20
2016,07,17,09,21,17.20
2016,07,17,09,22,17.20
2016,07,17,09,23,17.20
2016,07,17,09,24,17.20
2016,07,17,09,25,17.20
2016,07,17,09,26,17.20
2016,07,17,09,27,17.20
2016,07,17,09,28,17.20
2016,07,17,09,29,17.30
2016,07,17,09,30,17.30
2016,07,17,09,31,17.30
2016,07,17,09,32,17.30
2016,07,17,09,33,17.40
2016,07,17,09,34,17.50
2016,07,17,09,35,17.50
2016,07,17,09,36,17.60
2016,07,17,09,37,17.60
2016,07,17,09,38,17.70
2016,07,17,09,39,17.70
2016,07,17,09,40,17.80
2016,07,17,09,41,17.90
2016,07,17,09,42,17.90
2016,07,17,09,43,17.90
2016,07,17,09,44,17.90
2016,07,17,09,45,17.90
2016,07,17,09,46,17.90
2016,07,17,09,47,17.90
2016,07,17,09,48,18.00
2016,07,17,09,49,18.00
2016,07,17,09,50,18.10
2016,07,17,09,51,18.10
2016,07,17,09,52,18.20
2016,07,17,09,53,18.20
2016,07,17,09,54,18.20
2016,07,17,09,55,18.30
2016,07,17,09,56,18.40
2016,07,17,09,57,18.50
2016,07,17,09,58,18.60
2016,07,17,09,59,18.60
2016,07,17,10,00,18.60
2016,07,17,10,01,18.60
2016,07,17,10,02,18.60
2016,07,17,10,03,18.60
2016,07,17,10,04,18.70
2016,07,17,10,05,18.70
2016,07,17,10,06,18.70
2016,07,17,10,07,18.80
2016,07,17,10,08,18.90
2016,07,17,10,09,19.00
2016,07,17,10,10,19.10
2016,07,17,10,11,19.20
2016,07,17,10,12,19.30
2016,07,17,10,13,19.40
2016,07,17,10,14,19.50
2016,07,17,10,15,19.50
2016,07,17,10,16,19.60
2016,07,17,10,17,19.60
2016,07,17,10,18,19.60
2016,07,17,10,19,19.70
2016,07,17,10,20,19.70
2016,07,17,10,21,19.70
2016,07,17,10,22,19.80
2016,07,17,10,23,19.80
2016,07,17,10,24,19.70
2016,07,17,10,25,19.70
2016,07,17,10,26,19.70
2016,07,17,10,27,19.70
2016,07,17,10,28,19.70
2016,07,17,10,29,19.70
2016,07,17,10,30,19.60
2016,07,17,10,31,19.60
2016,07,17,10,32,19.70
2016,07,17,10,33,19.70
2016,07,17,10,34,19.70
2016,07,17,10,35,19.80
2016,07,17,10,36,19.80
2016,07,17,10,37,19.80
2016,07,17,10,38,19.80
2016,07,17,10,39,19.80
2016,07,17,10,40,19.80
2016,07,17,10,41,19.90
2016,07,17,10,42,19.90
2016,07,17,10,43,19.90
2016,07,17,10,44,19.90
2016,07,17,10,45,19.90
2016,07,17,10,46,19.90
2016,07,17,10,47,20.00
2016,07,17,10,48,20.00
2016,07,17,10,49,20.00
2016,07,17,10,50,20.00
2016,07,17,10,51,20.00
2016,07,17,10,52,20.10
2016,07,17,10,53,20.10
2016,07,17,10,54,20.20
2016,07,17,10,55,20.30
2016,07,17,10,56,20.30
2016,07,17,10,57,20.30
2016,07,17,10,58,20.40
2016,07,17,10,59,20.40
2016,07,17,11,00,20.50
2016,07,17,11,01,20.50
2016,07,17,11,02,20.60
2016,07,17,11,03,20.60
2016,07,17,11,04,20.70
2016,07,17,11,05,20.80
2016,07,17,11,06,20.80
2016,07,17,11,07,20.80
2016,07,17,11,08,20.80
2016,07,17,11,09,20.90
2016,07,17,11,10,20.90
2016,07,17,11,11,20.90
2016,07,17,11,12,21.00
2016,07,17,11,13,21.10
2016,07,17,11,14,21.10
2016,07,17,11,15,21.10
2016,07,17,11,16,21.20
2016,07,17,11,17,21.20
2016,07,17,11,18,21.30
2016,07,17,11,19,21.40
2016,07,17,11,20,21.50
2016,07,17,11,21,21.60
2016,07,17,11,22,21.60
2016,07,17,11,23,21.60
2016,07,17,11,24,21.70
2016,07,17,11,25,21.70
2016,07,17,11,26,21.70
2016,07,17,11,27,21.70
2016,07,17,11,28,21.80
2016,07,17,11,29,21.80
2016,07,17,11,30,21.80
2016,07,17,11,31,21.90
2016,07,17,11,32,21.80
2016,07,17,11,33,21.80
2016,07,17,11,34,21.70
2016,07,17,11,35,21.70
2016,07,17,11,36,21.70
2016,07,17,11,37,21.70
2016,07,17,11,38,21.70
2016,07,17,11,39,21.70
2016,07,17,11,40,21.70
2016,07,17,11,41,21.80
2016,07,17,11,42,21.80
2016,07,17,11,43,21.80
2016,07,17,11,44,21.80
2016,07,17,11,45,21.90
2016,07,17,11,46,21.90
2016,07,17,11,47,21.90
2016,07,17,11,48,22.00
2016,07,17,11,49,22.00
2016,07,17,11,50,21.90
2016,07,17,11,51,21.90
2016,07,17,11,52,21.80
2016,07,17,11,53,21.70
2016,07,17,11,54,21.70
2016,07,17,11,55,21.70
2016,07,17,11,56,21.70
2016,07,17,11,57,21.70
2016,07,17,11,58,21.80
2016,07,17,11,59,21.80
2016,07,17,12,00,21.80
2016,07,17,12,01,21.80
2016,07,17,12,02,21.90
2016,07,17,12,03,21.90
2016,07,17,12,04,22.00
2016,07,17,12,05,22.10
2016,07,17,12,06,22.20
2016,07,17,12,07,22.20
2016,07,17,12,08,22.20
2016,07,17,12,09,22.20
2016,07,17,12,10,22.20
2016,07,17,12,11,22.20
2016,07,17,12,12,22.20
2016,07,17,12,13,22.10
2016,07,17,12,14,22.10
2016,07,17,12,15,22.20
2016,07,17,12,16,22.30
2016,07,17,12,17,22.30
2016,07,17,12,18,22.30
2016,07,17,12,19,22.40
2016,07,17,12,20,22.50
2016,07,17,12,21,22.50
2016,07,17,12,22,22.60
2016,07,17,12,23,22.60
2016,07,17,12,24,22.60
2016,07,17,12,25,22.60
2016,07,17,12,26,22.60
2016,07,17,12,27,22.70
2016,07,17,12,28,22.70
2016,07,17,12,29,22.80
2016,07,17,12,30,22.80
2016,07,17,12,31,22.80
2016,07,17,12,32,22.80
2016,07,17,12,33,22.80
2016,07,17,12,34,22.80
2016,07,17,12,35,22.70
2016,07,17,12,36,22.70
2016,07,17,12,37,22.70
2016,07,17,12,38,22.70
2016,07,17,12,39,22.70
2016,07,17,12,40,22.80
2016,07,17,12,41,22.80
2016,07,17,12,42,22.80
2016,07,17,12,43,22.90
2016,07,17,12,44,22.90
2016,07,17,12,45,23.00
2016,07,17,12,46,23.00
2016,07,17,12,47,23.10
2016,07,17,12,48,23.20
2016,07,17,12,49,23.20
2016,07,17,12,50,23.20
2016,07,17,12,51,23.20
2016,07,17,12,52,23.20
2016,07,17,12,53,23.20
2016,07,17,12,54,23.20
2016,07,17,12,55,23.30
2016,07,17,12,56,23.40
2016,07,17,12,57,23.50
2016,07,17,12,58,23.70
2016,07,17,12,59,23.80
2016,07,17,13,00,23.80
2016,07,17,13,01,23.90
2016,07,17,13,02,23.90
2016,07,17,13,03,23.90
2016,07,17,13,04,23.90
2016,07,17,13,05,23.90
2016,07,17,13,06,23.80
2016,07,17,13,07,23.90
2016,07,17,13,08,23.90
2016,07,17,13,09,23.90
2016,07,17,13,10,23.90
2016,07,17,13,11,23.90
2016,07,17,13,12,23.90
2016,07,17,13,13,23.90
2016,07,17,13,14,24.00
2016,07,17,13,15,24.00
2016,07,17,13,16,24.10
2016,07,17,13,17,24.10
2016,07,17,13,18,24.00
2016,07,17,13,19,23.90
2016,07,17,13,20,24.00
2016,07,17,13,21,24.10
2016,07,17,13,22,24.10
2016,07,17,13,23,24.10
2016,07,17,13,24,24.10
2016,07,17,13,25,24.00
2016,07,17,13,26,24.00
2016,07,17,13,27,24.00
2016,07,17,13,28,24.10
2016,07,17,13,29,24.10
2016,07,17,13,30,24.20
2016,07,17,13,31,24.30
2016,07,17,13,32,24.40
2016,07,17,13,33,24.40
2016,07,17,13,34,24.40
2016,07,17,13,35,24.50
2016,07,17,13,36,24.50
2016,07,17,13,37,24.60
2016,07,17,13,38,24.60
2016,07,17,13,39,24.60
2016,07,17,13,40,24.60
2016,07,17,13,41,24.50
2016,07,17,13,42,24.40
2016,07,17,13,43,24.40
2016,07,17,13,44,24.30
2016,07,17,13,45,24.40
2016,07,17,13,46,24.40
2016,07,17,13,47,24.40
2016,07,17,13,48,24.40
2016,07,17,13,49,24.40
2016,07,17,13,50,24.50
2016,07,17,13,51,24.50
2016,07,17,13,52,24.60
2016,07,17,13,53,24.70
2016,07,17,13,54,24.70
2016,07,17,13,55,24.70
2016,07,17,13,56,24.80
2016,07,17,13,57,24.80
2016,07,17,13,58,24.90
2016,07,17,13,59,24.90
2016,07,17,14,00,25.00
2016,07,17,14,01,25.10
2016,07,17,14,02,25.10
2016,07,17,14,03,25.20
2016,07,17,14,04,25.20
2016,07,17,14,05,25.30
2016,07,17,14,06,25.30
2016,07,17,14,07,25.30
2016,07,17,14,08,25.30
2016,07,17,14,09,25.30
2016,07,17,14,10,25.30
2016,07,17,14,11,25.40
2016,07,17,14,12,25.50
2016,07,17,14,13,25.50
2016,07,17,14,14,25.60
2016,07,17,14,15,25.60
2016,07,17,14,16,25.70
2016,07,17,14,17,25.70
2016,07,17,14,18,25.70
2016,07,17,14,19,25.80
2016,07,17,14,20,25.80
2016,07,17,14,21,25.80
2016,07,17,14,22,25.80
2016,07,17,14,23,25.80
2016,07,17,14,24,25.70
2016,07,17,14,25,25.70
2016,07,17,14,26,25.70
2016,07,17,14,27,25.80
2016,07,17,14,28,25.80
2016,07,17,14,29,25.90
2016,07,17,14,30,26.00
2016,07,17,14,31,25.90
2016,07,17,14,32,26.00
2016,07,17,14,33,26.00
2016,07,17,14,34,26.10
2016,07,17,14,35,26.00
2016,07,17,14,36,26.00
2016,07,17,14,37,25.90
2016,07,17,14,38,25.90
2016,07,17,14,39,25.80
2016,07,17,14,40,25.70
2016,07,17,14,41,25.70
2016,07,17,14,42,25.80
2016,07,17,14,43,25.80
2016,07,17,14,44,25.90
2016,07,17,14,45,25.90
2016,07,17,14,46,25.90
2016,07,17,14,47,26.00
2016,07,17,14,48,26.10
2016,07,17,14,49,26.20
2016,07,17,14,50,26.20
2016,07,17,14,51,26.20
2016,07,17,14,52,26.20
2016,07,17,14,53,26.20
2016,07,17,14,54,26.20
2016,07,17,14,55,26.20
2016,07,17,14,56,26.20
2016,07,17,14,57,26.30
2016,07,17,14,58,26.40
2016,07,17,14,59,26.40
2016,07,17,15,00,26.40
2016,07,17,15,01,26.30
2016,07,17,15,02,26.20
2016,07,17,15,03,26.20
2016,07,17,15,04,26.20
2016,07,17,15,05,26.10
2016,07,17,15,06,26.00
2016,07,17,15,07,26.00
2016,07,17,15,08,26.00
2016,07,17,15,09,26.00
2016,07,17,15,10,26.00
2016,07,17,15,11,25.90
2016,07,17,15,12,26.00
2016,07,17,15,13,26.10
2016,07,17,15,14,26.10
2016,07,17,15,15,26.10
2016,07,17,15,16,26.20
2016,07,17,15,17,26.30
2016,07,17,15,18,26.40
2016,07,17,15,19,26.50
2016,07,17,15,20,26.50
2016,07,17,15,21,26.50
2016,07,17,15,22,26.40
2016,07,17,15,23,26.40
2016,07,17,15,24,26.50
2016,07,17,15,25,26.50
2016,07,17,15,26,26.50
2016,07,17,15,27,26.50
2016,07,17,15,28,26.60
2016,07,17,15,29,26.60
2016,07,17,15,30,26.60
2016,07,17,15,31,26.60
2016,07,17,15,32,26.60
2016,07,17,15,33,26.70
2016,07,17,15,34,26.80
2016,07,17,15,35,26.80
2016,07,17,15,36,26.80
2016,07,17,15,37,26.70
2016,07,17,15,38,26.60
2016,07,17,15,39,26.50
2016,07,17,15,40,26.50
2016,07,17,15,41,26.50
2016,07,17,15,42,26.50
2016,07,17,15,43,26.40
2016,07,17,15,44,26.40
2016,07,17,15,45,26.40
2016,07,17,15,46,26.40
2016,07,17,15,47,26.40
2016,07,17,15,48,26.50
2016,07,17,15,49,26.50
2016,07,17,15,50,26.50
2016,07,17,15,51,26.50
2016,07,17,15,52,26.50
2016,07,17,15,53,26.50
2016,07,17,15,54,26.40
2016,07,17,15,55,26.50
2016,07,17,15,56,26.50
2016,07,17,15,57,26.50
2016,07,17,15,58,26.50
2016,07,17,15,59,26.50
2016,07,17,16,00,26.40
2016,07,17,16,01,26.30
2016,07,17,16,02,26.30
2016,07,17,16,03,26.20
2016,07,17,16,04,26.20
2016,07,17,16,05,26.20
2016,07,17,16,06,26.20
2016,07,17,16,07,26.10
2016,07,17,16,08,26.10
2016,07,17,16,09,26.10
2016,07,17,16,10,26.00
2016,07,17,16,11,26.10
2016,07,17,16,12,26.00
2016,07,17,16,13,26.00
2016,07,17,16,14,26.00
2016,07,17,16,15,25.90
2016,07,17,16,16,25.90
2016,07,17,16,17,25.90
2016,07,17,16,18,25.80
2016,07,17,16,19,25.80
2016,07,17,16,20,25.80
2016,07,17,16,21,25.80
2016,07,17,16,22,25.80
2016,07,17,16,23,25.90
2016,07,17,16,24,25.90
2016,07,17,16,25,25.80
2016,07,17,16,26,25.70
2016,07,17,16,27,25.70
2016,07,17,16,28,25.60
2016,07,17,16,29,25.70
2016,07,17,16,30,25.70
2016,07,17,16,31,25.80
2016,07,17,16,32,25.80
2016,07,17,16,33,25.80
2016,07,17,16,34,25.90
2016,07,17,16,35,25.90
2016,07,17,16,36,25.90
2016,07,17,16,37,25.90
2016,07,17,16,38,26.00
2016,07,17,16,39,26.00
2016,07,17,16,40,25.90
2016,07,17,16,41,25.80
2016,07,17,16,42,25.80
2016,07,17,16,43,25.80
2016,07,17,16,44,25.80
2016,07,17,16,45,25.80
2016,07,17,16,46,25.80
2016,07,17,16,47,25.70
2016,07,17,16,48,25.70
2016,07,17,16,49,25.70
2016,07,17,16,50,25.70
2016,07,17,16,51,25.70
2016,07,17,16,52,25.70
2016,07,17,16,53,25.80
2016,07,17,16,54,25.80
2016,07,17,16,55,25.80
2016,07,17,16,56,25.80
2016,07,17,16,57,25.90
2016,07,17,16,58,26.00
2016,07,17,16,59,25.90
2016,07,17,17,00,25.90
2016,07,17,17,01,25.90
2016,07,17,17,02,25.80
2016,07,17,17,03,25.80
2016,07,17,17,04,25.80
2016,07,17,17,05,25.80
2016,07,17,17,06,25.80
2016,07,17,17,07,25.80
2016,07,17,17,08,25.80
2016,07,17,17,09,25.80
2016,07,17,17,10,25.80
2016,07,17,17,11,25.80
2016,07,17,17,12,25.80
2016,07,17,17,13,25.90
2016,07,17,17,14,25.90
2016,07,17,17,15,26.00
2016,07,17,17,16,26.00
2016,07,17,17,17,26.00
2016,07,17,17,18,26.00
2016,07,17,17,19,26.00
2016,07,17,17,20,26.00
2016,07,17,17,21,26.00
2016,07,17,17,22,25.90